DW2659 Weather Reports


time (UTC)temp
F
wind
direction
speed
knots
gust
knots
rain 1hr
in
rain 24hr
in
rain mn
in
humidity
%
barometer
mb
20260831015403 74 319 0.0 0.0 0.00 2.00 0.00 88 1018.7
20260831014902 74 319 0.0 0.0 0.00 2.00 0.00 88 1018.7
20260831014403 74 319 0.0 0.0 0.00 2.00 0.00 88 1018.7
20260831012904 74 319 0.0 0.0 0.00 2.00 0.00 88 1018.7
20260831012403 75 319 0.0 0.0 0.00 2.00 0.00 88 1018.7
20260831011902 75 319 0.0 0.0 0.00 2.00 0.00 88 1018.8
20260831011404 75 319 0.0 0.0 0.00 2.00 0.00 88 1018.8
20260831010903 75 319 0.0 0.0 0.00 2.00 0.00 86 1018.8
20260831010402 75 319 0.0 0.0 0.00 2.00 0.00 86 1018.8
20260831005903 75 319 0.0 0.0 0.00 2.00 0.00 86 1018.6
20260831005404 75 319 0.0 0.0 0.00 2.00 0.00 86 1018.6
20260831004902 75 319 0.0 0.0 0.00 2.00 0.00 86 1018.5
20260831004402 75 319 0.0 0.0 0.00 2.00 0.00 86 1018.5
20260831003904 76 319 0.0 0.0 0.00 2.00 0.00 86 1018.3
20260831002902 76 319 0.0 0.0 0.00 2.00 0.00 57 1018.4
20260831002404 76 319 0.0 0.0 0.00 2.00 0.00 57 1018.4
20260831001903 76 319 0.0 0.9 0.00 2.00 0.00 57 1018.4
20260831001402 76 319 0.9 0.9 0.00 2.00 0.00 57 1018.4
20260831000403 77 319 0.0 0.0 0.00 2.00 0.00 57 1018.4
20260830235903 82 319 0.0 0.0 0.00 2.00 0.00 57 1018.3
20260830235403 83 319 0.0 0.0 0.00 2.00 0.00 57 1018.3
20260830234904 83 319 0.0 0.0 0.00 2.00 0.00 57 1018.3
20260830234402 83 319 0.0 0.0 0.00 2.00 0.00 57 1018.3
20260830233903 83 319 0.0 0.0 0.00 2.00 0.00 57 1018.3
20260830233404 83 319 0.0 0.0 0.00 2.00 0.00 57 1018.3
20260830232902 83 319 0.0 0.0 0.00 2.00 0.00 57 1018.3
20260830232402 83 319 0.0 0.0 0.00 2.00 0.00 57 1018.3
20260830231904 83 319 0.0 0.0 0.00 2.00 0.00 57 1018.3
20260830231403 83 319 0.0 0.0 0.00 2.00 0.00 57 1018.4
20260830230403 83 319 0.0 0.0 0.00 2.00 0.00 57 1018.3
20260830225903 83 319 0.0 0.0 0.00 2.00 0.00 57 1018.2
20260830225403 83 319 0.0 0.0 0.00 2.00 0.00 57 1018.2
20260830224403 91 319 0.9 0.9 0.00 2.00 0.00 57 1018.4
20260830223903 91 319 1.7 1.7 0.00 2.00 0.00 57 1018.4
20260830223404 91 5 0.9 1.7 0.00 2.00 0.00 57 1018.4
20260830222902 91 5 1.7 1.7 0.00 2.00 0.00 57 1018.5
20260830222403 92 5 0.9 0.9 0.00 2.00 0.00 57 1018.3
20260830221904 92 265 0.9 0.9 0.00 2.00 0.00 57 1018.3
20260830221403 93 265 0.9 0.9 0.00 2.00 0.00 57 1018.2
20260830220903 93 265 0.0 0.0 0.00 2.00 0.00 57 1018.2
20260830220403 93 265 0.0 0.0 0.00 2.00 0.00 57 1018.2
20260830215903 93 265 0.0 0.0 0.00 2.00 0.00 61 1018.2
20260830215403 91 51 0.0 0.0 0.00 2.00 0.00 61 1018.2
20260830213902 91 51 0.0 0.0 0.00 2.00 0.00 61 1018.3
20260830213404 91 51 0.0 0.0 0.00 2.00 0.00 61 1018.3
20260830212903 90 51 0.0 0.0 0.00 2.00 0.00 61 1018.3
20260830211904 90 51 0.0 0.0 0.00 2.01 0.00 61 1018.4
20260830211403 91 51 0.0 0.0 0.00 2.04 0.00 61 1018.6
20260830210902 91 51 0.0 0.0 0.00 2.04 0.00 61 1018.6
20260830210405 91 51 0.0 0.0 0.00 2.04 0.00 61 1018.6
20260830205903 92 51 0.0 0.0 0.00 2.04 0.00 61 1018.5
20260830204903 92 51 0.0 0.0 0.00 2.04 0.00 61 1018.5
20260830203902 92 242 0.0 0.0 0.00 2.04 0.00 61 1018.7
20260830203402 92 201 0.0 0.0 0.00 2.04 0.00 61 1018.7
20260830202904 92 186 0.0 0.0 0.00 2.04 0.00 61 1018.9
20260830202403 92 214 0.0 0.0 0.00 2.04 0.00 61 1018.9
20260830201404 92 120 0.9 1.7 0.00 2.04 0.00 61 1019.0
20260830200903 91 249 0.0 1.7 0.00 2.04 0.00 61 1019.0
20260830200403 91 275 1.7 1.7 0.00 2.04 0.00 61 1019.1
20260830195904 91 275 1.7 1.7 0.00 2.04 0.00 61 1019.1
20260830195403 91 137 0.9 0.9 0.00 2.04 0.00 61 1019.1
20260830194904 91 52 0.9 0.9 0.00 2.04 0.00 61 1019.1
20260830194404 91 219 0.9 1.7 0.00 2.04 0.00 61 1019.4
20260830193903 91 194 1.7 1.7 0.00 2.04 0.00 61 1019.4
20260830193403 91 194 1.7 1.7 0.00 2.04 0.00 61 1019.4
20260830192905 91 256 0.9 1.7 0.00 2.04 0.00 61 1019.5
20260830192403 91 270 1.7 1.7 0.00 2.04 0.00 61 1019.7
20260830191404 90 198 1.7 2.6 0.00 2.04 0.00 61 1019.8
20260830190903 90 213 2.6 2.6 0.00 2.04 0.00 61 1019.8
20260830190403 90 218 2.6 6.1 0.00 2.04 0.00 61 1019.8
20260830185903 90 109 5.2 6.1 0.00 2.04 0.00 61 1019.9
20260830185404 91 163 2.6 2.6 0.00 2.04 0.00 61 1020.0
20260830184903 91 187 1.7 1.7 0.00 2.04 0.00 61 1020.0
20260830183903 89 126 2.6 2.6 0.00 2.04 0.00 61 1020.3
20260830183405 89 161 2.6 2.6 0.00 2.04 0.00 61 1020.3
20260830182403 88 248 1.7 1.7 0.00 2.04 0.00 61 1020.4
20260830181904 88 137 0.9 1.7 0.00 2.04 0.00 61 1020.7
20260830181403 88 277 0.9 1.7 0.00 2.04 0.00 61 1020.7
20260830180404 88 264 1.7 2.6 0.00 2.04 0.00 50 1020.7
20260830175904 87 0 0.0 0.0 0.00 2.04 0.00 59 1020.8
20260830174905 87 0 0.0 0.0 0.00 2.04 0.00 59 1020.8
20260830174403 87 0 0.0 0.0 0.00 2.04 0.00 59 1021.0
20260830173903 87 0 0.0 0.0 0.00 2.04 0.00 59 1021.0
20260830173404 87 0 0.0 0.0 0.00 2.04 0.00 59 1021.0
20260830172903 87 0 0.0 0.0 0.00 2.04 0.00 59 1021.3
20260830171904 87 325 2.6 5.2 0.00 2.04 0.00 59 1021.3
20260830171403 87 103 4.3 7.0 0.00 2.04 0.00 59 1021.7
20260830170903 87 255 1.7 4.3 0.00 2.04 0.00 61 1021.7
20260830170404 87 211 4.3 7.0 0.00 2.04 0.00 58 1021.7
20260830165903 87 57 2.6 5.2 0.00 2.04 0.00 62 1021.7
20260830165403 86 190 2.6 5.2 0.00 2.04 0.00 61 1021.7
20260830164904 86 231 1.7 4.3 0.00 2.04 0.00 63 1021.7
20260830164404 86 233 1.7 5.2 0.00 2.04 0.00 62 1021.8
20260830163903 86 148 2.6 5.2 0.00 2.04 0.00 62 1021.8
20260830163404 86 172 4.3 6.1 0.00 2.04 0.00 62 1021.8
20260830162904 86 108 4.3 7.0 0.00 2.04 0.00 60 1022.0
20260830162403 86 153 2.6 4.3 0.00 2.04 0.00 61 1022.0
20260830161904 86 246 3.5 5.2 0.00 2.04 0.00 61 1022.0
20260830161403 85 122 2.6 6.1 0.00 2.04 0.00 63 1022.0
20260830160903 85 0 0.9 2.6 0.00 2.04 0.00 67 1022.0
20260830160404 84 82 2.6 4.3 0.00 2.04 0.00 64 1022.0
20260830155903 84 168 3.5 6.1 0.00 2.04 0.00 66 1022.1
20260830155403 84 101 1.7 5.2 0.00 2.04 0.00 68 1022.1
20260830154905 84 220 1.7 6.1 0.00 2.04 0.00 67 1022.1
20260830154403 83 166 1.7 5.2 0.00 2.04 0.00 69 1022.2
20260830153904 82 143 1.7 2.6 0.00 2.04 0.00 71 1022.2
20260830152904 82 178 1.7 4.3 0.00 2.04 0.00 70 1022.3
20260830152403 82 103 3.5 6.1 0.00 2.04 0.00 70 1022.3
20260830151904 82 257 4.3 7.0 0.00 2.04 0.00 69 1022.2
20260830151403 82 196 2.6 5.2 0.00 2.04 0.00 69 1022.3
20260830150904 82 118 3.5 6.1 0.00 2.04 0.00 70 1022.3
20260830145903 82 179 3.5 7.8 0.00 2.04 0.00 71 1022.3
20260830145403 82 237 1.7 7.0 0.00 2.04 0.00 72 1022.3
20260830144404 81 159 1.7 5.2 0.00 2.04 0.00 74 1022.3
20260830143903 80 150 2.6 5.2 0.00 2.04 0.00 73 1022.3
20260830143403 80 182 2.6 7.8 0.00 2.04 0.00 73 1022.3
20260830142905 80 238 3.5 7.0 0.00 2.04 0.00 73 1022.2
20260830142403 81 231 4.3 7.0 0.00 2.04 0.00 72 1022.2
20260830141903 81 203 2.6 5.2 0.00 2.04 0.00 72 1022.2
20260830141404 81 248 2.6 5.2 0.00 2.04 0.00 73 1022.3
20260830140904 81 138 1.7 5.2 0.00 2.04 0.00 74 1022.3
20260830140403 81 133 1.7 4.3 0.00 2.04 0.00 74 1022.3
20260830135404 81 169 4.3 7.0 0.00 2.04 0.00 74 1022.1
20260830134903 80 64 0.9 2.6 0.00 2.04 0.00 78 1022.1
20260830133903 78 104 2.6 6.1 0.00 2.04 0.00 80 1022.2
20260830133404 77 114 2.6 5.2 0.00 2.04 0.00 81 1022.2
20260830132903 77 161 1.7 2.6 0.00 2.04 0.00 84 1022.1
20260830132403 76 83 1.7 4.3 0.00 2.04 0.00 84 1022.1
20260830131905 76 104 1.7 4.3 0.00 2.04 0.00 87 1022.1
20260830131404 75 155 0.9 1.7 0.00 2.04 0.00 89 1021.9
20260830130903 75 159 0.0 2.6 0.00 2.04 0.00 90 1021.9
20260830130404 74 162 2.6 4.3 0.00 2.04 0.00 90 1021.9
20260830125903 74 240 0.9 2.6 0.00 2.04 0.00 90 1021.7
20260830125403 73 230 1.7 2.6 0.00 2.04 0.00 90 1021.7
20260830124905 73 171 0.9 2.6 0.00 2.04 0.00 90 1021.7
20260830124403 72 230 0.9 1.7 0.00 2.04 0.00 90 1021.3
20260830123903 72 230 0.9 1.7 0.00 2.04 0.00 90 1021.3
20260830123404 72 230 0.0 0.0 0.00 2.04 0.00 90 1021.3
20260830122903 71 230 0.0 0.0 0.00 2.04 0.00 90 1021.3
20260830122403 71 230 0.0 0.0 0.00 2.04 0.00 90 1021.3
20260830121404 70 230 0.0 0.0 0.00 2.04 0.00 89 1021.2
20260830120903 70 230 0.0 0.0 0.00 2.04 0.00 89 1021.2
20260830120404 70 230 0.0 0.0 0.00 2.04 0.00 89 1021.2
20260830115903 70 230 0.0 0.0 0.00 2.04 0.00 89 1021.1
20260830115403 70 230 0.0 0.0 0.00 2.04 0.00 89 1021.0
20260830114904 70 230 0.0 0.0 0.00 2.04 0.00 89 1021.0
20260830114404 70 230 0.0 0.0 0.00 2.04 0.00 89 1021.0
20260830113904 70 230 0.0 0.0 0.00 2.04 0.00 89 1021.0
20260830113405 70 230 0.0 0.0 0.00 2.04 0.00 89 1021.0
20260830112903 70 230 0.0 0.0 0.00 2.04 0.00 89 1020.8
20260830112404 70 230 0.0 0.0 0.00 2.04 0.00 89 1020.8
20260830111904 70 230 0.0 0.0 0.00 2.04 0.00 89 1020.8
20260830111403 70 230 0.0 0.0 0.00 2.04 0.00 89 1020.7
20260830110904 70 230 0.0 0.9 0.00 2.04 0.00 89 1020.7
20260830110405 70 230 0.0 0.0 0.00 2.04 0.00 89 1020.7
20260830105904 70 230 0.0 0.0 0.00 2.04 0.00 89 1020.6
20260830104905 70 230 0.0 0.9 0.00 2.04 0.00 89 1020.6
20260830104404 70 230 0.9 1.7 0.00 2.04 0.00 89 1020.6
20260830103904 70 230 0.9 0.9 0.00 2.04 0.00 89 1020.6
20260830103405 70 230 0.0 0.0 0.00 2.04 0.00 89 1020.6
20260830102904 70 230 0.0 0.0 0.00 2.04 0.00 89 1020.5
20260830102404 70 230 0.0 0.0 0.00 2.04 0.00 89 1020.5
20260830101905 70 230 0.0 0.0 0.00 2.04 0.00 89 1020.6
20260830101404 70 230 0.0 0.0 0.00 2.04 0.00 89 1020.4
20260830100405 70 230 0.0 0.0 0.00 0.04 0.00 89 1020.4
20260830095904 70 230 0.0 0.9 0.00 0.04 0.00 89 1020.3
20260830095403 70 230 0.0 0.0 0.00 0.04 0.00 89 1020.4
20260830094905 70 230 0.0 0.9 0.00 0.04 0.00 89 1020.3
20260830094404 70 230 0.0 0.9 0.00 0.04 0.00 89 1020.3
20260830093903 70 230 0.0 0.0 0.00 0.04 0.00 89 1020.2
20260830093405 70 230 0.0 0.0 0.00 0.04 0.00 89 1020.2
20260830092903 70 230 0.0 0.0 0.00 0.04 0.00 89 1020.4
20260830091904 71 230 0.0 0.0 0.00 0.04 0.00 89 1020.4
20260830091404 71 230 0.0 0.0 0.00 0.04 0.00 89 1020.3
20260830090903 71 230 0.0 0.0 0.00 0.04 0.00 89 1020.3
20260830090404 71 230 0.0 0.9 0.00 0.04 0.00 89 1020.3
20260830085905 71 230 0.0 0.9 0.00 0.04 0.00 89 1020.4
20260830085403 71 230 0.0 0.0 0.00 0.04 0.00 89 1020.4
20260830084904 71 230 0.9 1.7 0.00 0.04 0.00 89 1020.4
20260830084403 71 230 0.9 0.9 0.00 0.04 0.00 88 1020.3
20260830083904 71 230 0.0 0.0 0.00 0.04 0.00 89 1020.3
20260830083403 71 230 0.0 0.0 0.00 0.04 0.00 89 1020.3
20260830082904 71 230 0.0 0.0 0.00 0.04 0.00 89 1020.2
20260830082405 71 230 0.0 0.0 0.00 0.04 0.00 89 1020.2
20260830081903 71 230 0.0 0.0 0.00 0.04 0.00 88 1020.2
20260830081404 71 230 0.0 0.0 0.00 0.04 0.00 88 1020.2
20260830080904 71 230 0.0 0.9 0.00 0.04 0.00 88 1020.2
20260830080405 71 230 0.0 0.9 0.00 0.04 0.00 88 1020.2
20260830075403 71 230 0.0 1.7 0.00 0.04 0.00 89 1020.0
20260830074903 71 230 0.0 0.9 0.00 0.04 0.00 88 1020.0
20260830073904 71 230 0.0 0.9 0.00 0.04 0.00 88 1020.1
20260830073404 72 230 0.0 0.0 0.00 0.04 0.00 88 1020.0
20260830072404 72 230 0.0 0.0 0.00 0.04 0.00 89 1020.1
20260830071903 72 230 0.0 0.9 0.00 0.04 0.00 89 1020.1
20260830071405 72 230 0.0 0.0 0.00 0.04 0.00 88 1020.1
20260830070904 72 230 0.0 0.9 0.00 0.04 0.00 88 1020.1
20260830070404 72 230 0.0 0.9 0.00 0.04 0.00 88 1020.0
20260830065905 72 230 0.0 0.9 0.00 0.04 0.00 88 1020.1
20260830064903 72 230 0.0 0.9 0.00 0.04 0.00 88 1020.1
20260830064404 72 230 0.0 0.0 0.00 0.04 0.00 88 1020.1
20260830063905 72 230 0.9 1.7 0.00 0.04 0.00 88 1020.1
20260830063404 72 230 0.9 1.7 0.00 0.04 0.00 89 1020.3
20260830062905 72 230 0.9 0.9 0.00 0.04 0.00 89 1020.3
20260830062404 72 230 0.9 1.7 0.00 0.04 0.00 89 1020.3
20260830061904 72 297 0.9 1.7 0.00 0.04 0.00 89 1020.3
20260830061403 72 336 0.9 1.7 0.00 0.04 0.00 89 1020.2
20260830060902 72 336 0.0 0.0 0.00 0.04 0.00 88 1020.3
20260830060402 72 336 0.0 0.9 0.00 0.04 0.00 89 1020.3
20260830055902 72 336 0.0 0.9 0.00 0.04 0.00 89 1020.3
20260830054902 72 336 0.9 1.7 0.00 0.04 0.00 89 1020.3
20260830054403 72 336 0.0 0.9 0.00 0.04 0.00 89 1020.4
20260830053903 72 336 0.0 0.9 0.00 0.04 0.00 89 1020.4
20260830053403 72 336 0.0 0.9 0.00 0.04 0.00 89 1020.4
20260830052902 72 336 0.9 0.9 0.00 0.04 0.00 89 1020.6
20260830052403 72 336 0.0 0.9 0.00 0.04 0.00 89 1020.6
20260830051902 72 336 0.0 0.9 0.00 0.04 0.00 88 1020.6
20260830051402 72 336 0.0 0.9 0.00 0.04 0.00 88 1020.6
20260830050902 72 336 0.0 0.9 0.00 0.04 0.00 88 1020.6
20260830050403 72 336 0.0 0.9 0.00 0.04 0.00 88 1020.6
20260830045902 72 336 0.0 0.9 0.00 0.04 0.00 89 1020.6
20260830045402 72 336 0.0 0.0 0.00 0.04 0.00 89 1020.6
20260830044903 72 336 0.0 0.0 0.00 0.04 0.00 88 1020.6
20260830043903 72 336 0.0 0.0 0.00 0.04 0.00 88 1020.6
20260830043403 72 336 0.0 0.0 0.00 0.04 0.00 88 1020.6
20260830042904 72 336 0.0 0.0 0.00 0.04 0.00 88 1020.7
20260830042403 72 336 0.0 0.0 0.00 0.04 0.00 88 1020.8
20260830041902 72 336 0.0 0.9 0.00 0.04 0.00 88 1020.8
20260830040402 72 336 0.0 0.0 0.00 0.04 0.00 88 1020.8
20260830035902 72 336 0.0 0.0 0.00 0.04 0.04 88 1020.8
20260830035403 72 336 0.0 0.0 0.00 0.04 0.04 88 1020.8
20260830034902 72 336 0.0 0.0 0.00 0.04 0.04 88 1020.8
20260830033903 72 336 0.0 0.0 0.00 0.04 0.04 88 1020.6
20260830033402 72 336 0.0 0.0 0.00 0.04 0.04 88 1020.6
20260830032902 72 336 0.0 0.0 0.00 0.04 0.04 88 1020.5
20260830032403 72 336 0.0 0.0 0.00 0.04 0.04 88 1020.5
20260830031903 72 336 0.0 0.0 0.00 0.04 0.04 88 1020.5
20260830030903 73 336 0.0 0.0 0.00 0.04 0.04 88 1020.5
20260830030403 73 336 0.0 0.0 0.00 0.04 0.04 88 1020.5
20260830025902 73 336 0.0 0.0 0.00 0.04 0.04 88 1020.2
20260830025403 73 336 0.0 0.9 0.00 0.04 0.04 88 1020.2
20260830024903 73 336 0.0 0.0 0.00 0.04 0.04 88 1020.2
20260830024403 73 336 0.0 0.0 0.00 0.04 0.04 88 1020.2
20260830023902 73 336 0.0 0.0 0.00 0.04 0.04 88 1020.2
20260830022902 73 336 0.0 0.0 0.00 0.04 0.04 87 1019.9
20260830022402 73 336 0.0 0.9 0.00 0.04 0.04 87 1019.9
20260830021904 73 336 0.0 0.0 0.00 0.04 0.04 88 1019.9
20260830020902 73 336 0.0 0.0 0.00 0.04 0.04 88 1019.6
20260830020404 73 336 0.0 0.0 0.00 0.04 0.04 87 1019.6
20260830015902 73 336 0.0 0.0 0.00 0.04 0.04 87 1018.9